GSAT-6 (40880 NORAD) Tracking and Keplerian Element Data

This shows tracking and keplerian element data for the satellite.

Feedback or suggestion? Click here.




ElementValue
Catalog40880
NameGSAT-6
Epoch Orbit2596
Epoch Day270.04571569
Epoch Year2022
RAAN145.9533
Inclination0.0247
Eccentricity0.0004356
Argument of Perigee46.1105
Mean Anonmoly272.6875
Mean Motion1.00265936
Decay Rate-1.55E-06
L11 40880U 15041A 22270.04571569 -.00000155 00000+0 00000+0 0 9991
L22 40880 0.0247 145.9533 0004356 46.1105 272.6875 1.00265936 25961

Live tracking and technical data element details for GSAT-6 (NORAD 40880). GSAT-6 can be tracked NOW for your location showing map with azimuth and elevation plus other details from your city location.

Track the satellite on the map from your city or location and see movement details for azimuth, elevation, latitude, longitude, range, height, and movement on the map or in text.







IsCatalogInMostPopularTable: catalog: 40880, numindb: 588
Update: records affected: 1



GetName: 40880 GSAT-6

Hit Count: updated at: Thu, 29 Sep 2022 11:57:16 GMT